Warner Robins, GA

5:47 PM EDT on October 17, 2017 (GMT -0400)
Robins Air Force Base

Weather History for KWRB - August, 2013

Change the Weather History Date:

Monday, August 26, 2013

  Actual Average Record
Temperature  
Mean Temperature 71 °F -  
Max Temperature 83 °F 87 °F 99 °F (2011)
Min Temperature 60 °F 68 °F 58 °F (2015)
Cooling Degree Days 6    
Growing Degree Days 21 (Base 50)    
Moisture  
Dew Point 62 °F    
Average Humidity 75    
Maximum Humidity 96    
Minimum Humidity 40    
Precipitation  
Precipitation 0.00 in - - ()
Sea Level Pressure  
Sea Level Pressure 30.22 in    
Wind  
Wind Speed 3 mph (NNE)    
Max Wind Speed 8 mph    
Max Gust Speed -    
Visibility 10 miles    
Events      
Averages and records for this station are not official NWS values.
T = Trace of Precipitation, MM = Missing Value Source: NWS Daily Summary

Daily Weather History Graph

Daily Weather History Graph

Search for Another Location

Airport or City:

Trip Planner

Search our weather history database for the weather conditions in past years. The results will help you decide how hot, cold, wet, or windy it might be!

Date:

Astronomy

Aug. 26, 2013 Rise Set
Actual Time 7:05 AM EDT 8:06 PM EDT
Civil Twilight 6:40 AM EDT 8:31 PM EDT
Nautical Twilight 6:10 AM EDT 9:01 PM EDT
Astronomical Twilight 5:38 AM EDT 9:32 PM EDT
Moon 11:39 PM EDT (8/26) 12:43 PM EDT (8/26)
Length of Visible Light 13h 51m
Length of Day
13h 00m
Waning Gibbous, 67% of the Moon is Illuminated
Aug 26
Waning Gibbous
Aug 28
Last Quarter
Sep 5
New
Sep 12
First Quarter
Sep 19
Full

Hourly Weather History & Observations

Time (EDT) Temp. Heat Index Dew Point Humidity Pressure Visibility Wind Dir Wind Speed Gust Speed Precip Events Conditions
12:58 AM 66.4 °F - 63.5 °F 90% 30.27 in 10.0 mi Variable 1.2 mph - N/A   Clear
1:58 AM 66.4 °F - 62.6 °F 88% 30.27 in 10.0 mi East 3.5 mph - N/A   Clear
2:58 AM 64.8 °F - 62.1 °F 91% 30.26 in 10.0 mi North 2.3 mph - N/A   Clear
3:58 AM 64.2 °F - 61.3 °F 90% 30.26 in 10.0 mi Calm Calm - N/A   Clear
4:58 AM 63.1 °F - 60.8 °F 92% 30.26 in 10.0 mi North 3.5 mph - N/A   Clear
5:58 AM 62.4 °F - 60.4 °F 93% 30.25 in 10.0 mi Variable 1.2 mph - N/A   Clear
6:58 AM 60.4 °F - 58.8 °F 94% 30.27 in 10.0 mi NNW 3.5 mph - N/A   Clear
7:58 AM 62.2 °F - 61.2 °F 96% 30.27 in 10.0 mi NNW 4.6 mph - N/A   Clear
8:58 AM 67.8 °F - 61.7 °F 81% 30.27 in 10.0 mi Variable 3.5 mph - N/A   Clear
9:58 AM 72.7 °F - 62.1 °F 69% 30.30 in 10.0 mi ENE 6.9 mph - N/A   Clear
10:58 AM 76.5 °F - 61.9 °F 61% 30.30 in 10.0 mi Variable 5.8 mph - N/A   Clear
11:58 AM 79.0 °F - 61.2 °F 54% 30.30 in 10.0 mi NNE 6.9 mph - N/A   Clear
12:58 PM 80.1 °F 80.7 °F 58.6 °F 48% 30.27 in 10.0 mi NE 8.1 mph - N/A   Clear
1:58 PM 80.8 °F 81.1 °F 58.3 °F 46% 30.25 in 10.0 mi NE 8.1 mph - N/A   Clear
2:58 PM 81.5 °F 82.0 °F 59.9 °F 48% 30.22 in 10.0 mi Variable 5.8 mph - N/A   Clear
3:58 PM 82.0 °F 81.7 °F 57.0 °F 42% 30.19 in 10.0 mi ENE 5.8 mph - N/A   Clear
4:58 PM 82.8 °F 82.1 °F 56.5 °F 40% 30.18 in 10.0 mi NNE 4.6 mph - N/A   Clear
5:58 PM 82.4 °F 82.0 °F 57.0 °F 42% 30.16 in 10.0 mi Variable 4.6 mph - N/A   Clear
6:58 PM 82.0 °F 82.4 °F 59.7 °F 47% 30.17 in 10.0 mi ENE 2.3 mph - N/A   Clear
7:58 PM 74.1 °F - 68.2 °F 82% 30.16 in 10.0 mi NE 1.2 mph - N/A   Clear
7:59 PM 73.4 °F - 68.0 °F 83% 30.15 in 10.0 mi NE 1.2 mph - N/A   Light Drizzle
8:19 PM 71.6 °F - 66.2 °F 83% 30.16 in 10.0 mi Calm Calm - N/A   Clear
8:39 PM 71.6 °F - 64.4 °F 78% 30.15 in 10.0 mi Calm Calm - N/A   Light Drizzle
8:58 PM 70.9 °F - 65.8 °F 84% 30.15 in 10.0 mi Variable 1.2 mph - 0.00 in   Light Drizzle
9:58 PM 69.3 °F - 66.2 °F 90% 30.17 in 10.0 mi Calm Calm - 0.00 in   Light Drizzle
10:58 PM 68.4 °F - 65.8 °F 92% 30.17 in 10.0 mi Calm Calm - 0.00 in   Light Drizzle
11:52 PM 66.2 °F - 64.4 °F 94% 30.17 in 10.0 mi North 1.2 mph - N/A   Clear
11:58 PM 66.9 °F - 64.9 °F 93% 30.17 in 10.0 mi Calm Calm - 0.00 in   Clear